GFSWCAN_prec_radar_000.txt.gz
Reflectivity
-18 1 3 11 9 -19 -20 -20 -20 -20 -20 -20 -20 -20 -20 -20 -20 -20 -20 -20 -20 -20 -20 -20 -20 -20 -20 -20 -20 -20 -20 -20 -20 -20 -20 -20 -20 -20 -20 -20 -20 -20 -20 -20 -19 -20 -20 -20 -18 9 -17 -7 -20 -16
-20 -11 2 -20 7 -4 -20 -20 -20 -20 -20 -20 -20 -20 -20 -20 -20 -20 -20 -20 -20 -20 -20 -20 -20 -20 -20 -20 -20 -20 -20 -20 -20 -20 -20 -20 -20 -20 -20 -20 -20 -20 -20 -20 3 -19 -20 -20 14 -12 -20 -19 -20 -13
4 13 13 12 2 14 -16 -20 -20 -20 -20 -20 -20 -20 -20 -20 -20 -20 -20 -20 -20 -20 -20 -20 -20 -20 -20 -20 -20 -20 -20 -20 -20 -20 -20 -20 -20 -20 -11 -20 -18 -20 -20 -20 -16 -20 -20 -11 -12 -20 -20 -20 1 21
9 16 19 5 -1 -4 -11 -10 -20 -20 -20 -20 -20 -20 -20 -20 -20 -20 -20 -20 -20 -18 -20 -20 -20 -20 -20 -20 -20 -20 -20 -20 -20 -20 -20 -16 -20 -20 -0 -14 10 -8 -20 -20 -20 -20 -20 -9 -13 -20 -3 -20 -18 -18
5 23 21 15 22 8 -6 -20 -20 1 4 8 6 7 -20 -20 -20 -20 -20 -20 -20 -20 -20 -20 -20 -20 -20 -20 -20 -20 -20 -20 -5 -12 -3 -6 -20 -18 22 26 23 -20 -12 -10 -18 9 33 22 -16 -9 -13 -20 -20 -20
1 24 26 16 19 26 -8 -20 -20 4 -11 -11 -0 6 -10 -20 -20 -20 -20 -20 -20 -20 -20 -20 -20 -20 -20 -20 -20 -20 -20 -20 -20 -20 9 -19 1 9 25 27 6 -20 -20 -19 14 18 -11 -19 -20 -20 -10 -20 -20 -20
-1 16 7 18 18 23 27 11 -4 -16 -13 3 13 -18 -20 -19 -20 -20 -20 -20 -20 -20 -3 -11 -20 -20 -20 -20 -20 -20 -20 -20 -20 -20 -10 5 -8 22 21 3 5 -18 -20 -18 -20 -20 -20 -20 -20 -20 -20 -19 -20 -20
-11 -14 -2 26 26 25 32 33 20 7 1 -20 -20 -16 -3 23 20 16 -16 -20 -20 -20 -20 -20 -20 -20 -20 -20 -20 -19 -20 -20 -20 -20 -10 -20 -20 -1 28 -17 -20 -20 -20 -20 -20 -20 -20 -20 -20 -20 -20 -20 -20 -20
-20 -20 9 17 23 22 25 28 26 31 19 14 20 22 16 11 13 11 26 15 -13 11 -20 -2 18 7 -4 -20 -20 -20 -20 -20 -20 -20 -1 5 -19 -14 -20 -20 -20 -20 -20 -20 -20 -20 -20 -20 -20 -20 -20 -20 -20 -20
-20 -20 -15 1 18 11 14 19 21 20 31 30 28 31 34 29 24 13 32 31 40 28 18 23 21 22 14 12 4 20 22 -20 -20 -19 -20 -19 -20 -20 -20 -20 -20 -20 -20 -20 -20 -20 -20 -20 -20 -20 -20 -20 -20 -20
-20 -20 -20 -20 -2 8 14 15 16 28 35 32 35 36 28 23 28 31 35 40 37 25 21 18 -12 -10 7 26 35 32 7 -20 -20 -20 -20 -20 -20 -20 -20 -20 -20 -20 -20 -20 -20 -20 -20 -20 -20 -20 -20 -20 -20 -20
-20 -20 -20 -18 -13 9 16 19 20 12 21 27 23 14 19 33 31 30 28 23 7 -20 -20 -19 -7 12 20 8 4 26 -4 5 0 -19 -20 -20 -20 -20 -20 -20 -20 -20 -20 -20 -20 -20 -20 -20 -20 -20 -20 -20 -20 -20
-20 -20 -5 2 -19 -20 11 19 18 12 6 1 1 7 6 7 2 -7 -20 -19 -20 -20 -2 7 7 1 4 -0 2 -10 -20 -20 -20 -20 -20 -20 -20 -20 -20 -20 -20 -20 -20 -20 -20 -20 -20 -20 -20 -20 -20 -20 -20 -20
-20 -20 8 12 -2 -20 -20 13 9 4 -4 -17 -11 -19 -19 -19 -20 -20 -20 -20 -6 6 2 -8 -20 -20 -18 -12 -19 -20 -20 -20 -20 -20 -20 -20 -20 -20 -20 -20 -20 -20 -20 -20 -20 -20 -20 -20 -20 -20 -20 -20 -20 -20
-20 -20 -3 9 8 -6 -20 -19 3 1 -20 -20 -20 -20 -20 -20 -20 -20 -20 -17 -20 -15 -10 -19 -19 -20 -20 -9 -20 -20 -20 -20 -20 -20 -20 -20 -20 -20 -20 -20 -20 -20 -20 -20 -20 -20 -20 -20 -20 -20 -20 -20 -20 -20
11 -4 -20 -7 6 2 1 -6 -20 -20 -20 -20 -20 -20 -20 -20 -20 -20 -20 -13 -7 16 -13 -11 -20 -20 -20 -20 -20 -20 -20 -20 -20 -20 -20 -20 -20 -20 -20 -20 -20 -20 -20 -20 -20 -20 -20 -20 -20 -20 -20 -20 -20 -20
18 -3 -20 -20 -20 -17 -4 -8 -20 -20 -20 -20 -20 -20 -20 -20 -20 -20 -20 -16 -2 -8 -20 -20 -20 -20 -20 -20 -20 -20 -20 -20 -20 -20 -20 -20 -20 -20 -20 -20 -20 -20 -20 -20 -20 -20 -20 -20 -20 -20 -20 -20 -20 -20
29 5 9 -7 -19 -20 -20 -20 -20 -20 -20 -20 -20 -20 -20 -20 -20 -20 -20 -20 -15 -20 -20 -20 -20 -20 -20 -20 -20 -20 -20 -20 -20 -20 -20 -20 -20 -20 -20 -20 -20 -20 -20 -20 -20 -20 -20 -20 -20 -20 -20 -20 -20 -20
33 25 13 15 -9 -20 -20 -20 -20 -20 -20 -20 -20 -20 -20 -20 -20 -20 -20 -20 -20 -20 -20 -20 -20 -20 -20 -20 -20 -20 -20 -20 -20 -20 -20 -20 -20 -20 -20 -20 -20 -20 -20 -20 -20 -20 -20 -20 -20 -20 -20 -20 -20 -20
33 18 14 -2 -17 -20 -20 -20 -20 -20 -20 -20 -20 -20 -20 -20 -20 -20 -20 -20 -20 -20 -2 -20 -20 -20 -20 -20 -20 -20 -20 -20 -20 -20 -20 -20 -20 -20 -20 -20 -20 -20 -20 -20 -20 -20 -20 -20 -20 -20 -20 -7 -5 -20
12 14 17 -19 -20 -20 -20 -20 -20 -20 -20 -20 -20 -20 -20 -20 -20 -20 -20 -20 -20 -20 -20 -20 -20 -20 -20 -20 -20 -20 -20 -20 -20 -20 -20 -20 -20 -20 -20 -20 -20 -20 -20 -20 -20 -20 -20 -20 -20 -20 -20 -20 -20 -5
24 13 1 -20 -20 -20 -20 -20 -20 -20 -20 -20 -20 -20 -20 -20 -20 -20 -20 -20 -20 -20 -20 -20 -20 -20 -20 -20 -20 -20 -20 -20 -20 -20 -20 -20 -20 -20 -20 -20 -20 -20 -20 -20 -20 -20 -20 -20 -17 -20 -20 -19 0 -19
-3 -15 -18 -18 -20 -20 -20 -20 -20 -20 -20 -20 -20 -20 -20 -20 -20 -20 -20 -20 -20 -20 -20 -20 -20 -20 -20 -20 -20 -20 -20 -20 -20 -20 -20 -20 -20 -20 -20 -20 -20 -20 -20 -20 -20 -20 -20 -0 -4 -5 -8 -15 -20 -20
-20 -20 -20 -20 -20 -20 -20 -20 -20 -20 -20 -20 -20 -20 -20 -20 -20 -20 -20 -20 -20 -20 -20 -20 -20 -20 -20 -20 -20 -20 -20 -20 -20 -20 -20 -20 -20 -20 -20 -20 -20 -20 -20 -20 -20 -20 -20 -20 -16 -20 -19 -20 -20 -20
-20 -20 -20 -20 -20 -20 -20 -20 -20 -20 -20 -20 -20 -20 -20 -20 -20 -20 -20 -20 -20 -20 -20 -20 -20 -20 -20 -20 -20 -20 -20 -20 -20 -20 -20 -20 -20 -20 -20 -20 -20 -20 -20 -20 -20 -20 -20 -19 -19 -20 -20 -20 -20 -20
-20 -20 -20 -20 -20 -20 -20 -20 -20 -20 -20 -20 -20 -20 -20 -20 -20 -20 -20 -20 -20 -20 -20 -20 -20 -20 -20 -20 -20 -20 -20 -20 -20 -20 -20 -20 -20 -20 -20 -20 -20 -20 -20 -20 -19 -20 -8 -20 -20 -6 -5 -7 -20 -20
-20 -20 -20 -20 -20 -20 -20 -20 -20 -20 -20 -20 -20 -20 -20 -20 -20 -20 -20 -20 -20 -20 -20 -20 -20 -20 -20 -20 -20 -20 -20 -20 -20 -20 -20 -20 -20 -20 -19 -14 -20 -20 -20 -18 -18 -20 -18 -19 -20 -19 -19 -20 -20 -20
-20 -20 -20 -20 -20 -20 -20 -20 -20 -20 -20 -20 -20 -20 -20 -20 -20 -20 -20 -20 -20 -20 -20 -20 -20 -20 -20 -20 -20 -20 -20 -20 -20 -20 -20 -20 -15 -8 -2 -16 -20 -20 -20 -16 -15 -20 -20 4 -18 -20 -20 -20 -20 -20
-20 -20 -20 -20 -20 -20 -20 -20 -20 -20 -20 -20 -20 -20 -20 -20 -20 -20 -20 -20 -20 -20 -20 -20 -20 -20 -20 -20 -20 -20 -20 -20 -20 -20 -20 -20 -20 -20 -8 -20 -20 -20 -20 -20 11 4 -20 -20 -20 -20 -20 -20 -20 -20
-20 -20 -20 -20 -20 -20 -20 -20 -20 -20 -20 -20 -20 -20 -20 -20 -20 -20 -20 -20 -20 -20 -20 -20 -20 -20 -20 -20 -20 -20 -18 -14 0 4 -11 -19 -20 -20 -20 -20 -20 -20 -20 -20 -20 -20 -20 -20 -20 -20 -20 -20 -20 -20
-20 -20 -20 -20 -20 -20 -20 -20 -20 -20 -20 -20 -20 -20 -20 -20 -20 -20 -20 -20 -20 -20 -20 -20 -20 -20 -20 -20 -19 -20 -14 -9 -18 -17 -20 -20 -20 -20 -20 -20 -20 -20 -20 -20 -20 -20 -20 -20 -20 -20 -20 -20 -20 -20
-20 -20 -20 -20 -20 -20 -20 -20 -20 -20 -20 -20 -20 -20 -20 -20 -20 -20 -20 -20 -20 -20 -20 -20 -20 -20 -17 -9 -8 -1 -2 -17 -20 -20 -20 -20 -20 -20 -20 -20 -20 -20 -20 -20 -20 -20 -20 -20 -20 -20 -20 -20 -20 -20
-20 -20 -20 -20 -20 -20 -20 -20 -20 -20 -20 -20 -20 -20 -20 -20 -20 -9 11 12 5 -5 1 6 3 1 1 -0 -1 -10 -8 2 -3 -18 -20 -20 -20 -20 -20 -20 -20 -20 -20 -20 -20 -20 -20 -20 -20 -20 -20 -20 -20 -20

GFSWCAN_prec_radar_006.txt.gz
Reflectivity
26 14 6 -20 -20 -20 -20 -20 -20 -20 -20 -20 -20 -20 -20 -20 -20 -20 -20 -20 -20 -1 -20 -20 -20 -20 -20 -20 -20 -20 -20 -20 -20 12 -20 -20 -8 -20 -20 -20 -20 -16 -15 -11 -7 -3 -14 -20 -11 8 -8 -20 12 -14
26 22 13 -12 -20 -4 -12 -20 -20 -20 -20 -20 -20 -20 -20 -20 -20 -20 -20 -20 -20 -20 -20 -20 -20 -20 -20 -20 -20 -20 -20 -20 -20 -8 -5 -20 -8 -20 5 -20 -20 -20 -20 -18 -17 -20 -20 -20 16 -20 -20 -12 5 -2
19 21 20 -15 -12 -20 -2 -8 -20 -20 -20 -20 -20 -20 -20 -20 -20 -20 -20 -20 -20 4 -19 -20 -20 -20 -20 -20 -20 -20 -20 -20 -20 -20 -20 -18 18 -20 -20 -20 -19 -20 -20 -20 5 -20 9 13 5 -20 -20 -20 -19 -10
9 -14 15 18 -0 -19 -20 6 -3 -20 -20 -20 -20 -20 -20 -20 -20 -20 -20 -20 -20 -10 26 -20 -20 -20 -20 -20 -20 -20 -20 -20 -20 -20 2 9 15 -20 -20 -20 -20 -20 -8 -20 2 1 2 -20 -20 -20 10 -5 -18 -20
-20 -20 -20 11 14 -20 -20 -3 10 -15 -20 6 -7 5 1 -20 -20 -20 -20 -20 -20 -20 19 -20 -20 -20 -20 -20 -20 -20 -20 -20 -20 3 11 15 -20 -20 -20 -20 -20 -20 -20 11 -20 7 7 -9 -20 12 1 -20 -20 -20
-20 -20 -20 -18 -12 -20 -20 4 4 10 -8 -16 7 3 -20 -20 -20 -20 -20 -20 -20 -20 -12 23 -20 -20 -20 -20 -20 -20 -20 -20 -20 -7 2 -20 -20 -20 8 -13 -20 -20 -20 -19 -15 16 -13 -18 -20 -20 -20 -20 -20 -20
-20 -20 -20 -20 -20 -15 -19 -10 -14 8 -12 -20 -4 -13 -15 -11 -20 -6 -20 -20 -20 -20 14 20 -18 -20 -20 -20 -20 -20 -20 -12 -19 -13 -4 -6 -13 -9 6 -10 -20 4 -20 -12 5 10 -19 -20 -20 -20 -20 -20 -20 -20
-20 -20 -20 -20 -20 -20 10 -3 -0 1 3 -16 5 9 -7 -20 -20 -20 -20 -20 -20 -20 -16 -13 -5 -20 -20 -20 -9 -20 -20 -20 -11 10 -7 -20 -20 -6 -10 -20 -20 -20 -20 -6 -20 -18 -17 -20 -20 -20 -20 -20 -20 -20
-20 -20 -20 -20 -20 -20 -20 12 12 13 10 7 16 1 8 8 -2 -20 -20 -4 -20 -20 -14 16 -16 -3 -20 -20 -20 -20 -20 11 -20 7 -17 -20 -18 -1 -10 -20 -20 -12 4 24 1 -20 -20 -20 -20 -20 -20 -20 -20 -20
-6 8 -20 -20 -20 -20 -20 -20 6 18 23 25 16 9 17 10 21 13 -2 -20 -20 -20 -20 12 -6 4 -19 -20 -13 3 -20 -8 -20 -20 -20 -19 -2 -20 -20 -20 -20 -20 -3 -20 -20 -20 -20 -20 -20 -20 -20 -20 -20 -20
-6 12 -18 -20 -20 -20 -20 -18 8 25 37 34 37 32 31 24 18 20 8 6 12 6 -0 4 9 0 -11 12 11 3 25 18 -6 -6 -3 5 -9 -20 -20 -20 -20 -20 -20 -20 -20 -20 -20 -20 -20 -20 -20 -20 -20 -20
-9 11 -20 -8 -20 -20 -20 15 25 35 39 36 35 27 27 28 28 30 31 28 22 17 21 2 11 2 18 21 30 32 29 22 9 -20 -10 -15 -20 -20 -20 -20 -20 -20 -20 -20 -20 -20 -20 -20 -20 -20 -20 -20 -20 -20
-6 -16 -2 -8 -12 -14 -20 23 24 25 33 37 31 33 35 37 29 28 18 16 11 -3 -14 1 14 29 26 -1 18 24 9 -3 -20 -19 -19 -20 -20 -20 -20 -20 -20 -20 -20 -20 -20 -20 -20 -20 -20 -20 -20 -20 -20 -20
-2 -20 6 7 -17 1 13 -2 28 32 34 37 37 27 33 24 30 23 18 3 -4 -11 -16 -18 -7 -1 7 -16 4 1 -7 -19 -1 -3 -20 -20 -20 -20 -20 -20 -20 -20 -20 -20 -20 -20 -20 -20 -20 -20 -20 -20 -20 -20
-20 -20 6 7 -11 -13 23 25 28 26 30 21 21 19 20 22 19 13 -1 -6 -13 -20 -19 -12 -3 1 -2 -3 -17 1 -11 -6 -9 -20 -20 -20 -20 -20 -20 -20 -20 -20 -20 -20 -20 -20 -20 -20 -20 -20 -20 -20 -20 -20
-19 -12 4 -20 -20 -5 14 35 22 31 14 -1 6 14 19 18 18 26 28 11 7 6 12 0 -19 -20 -20 -20 -20 -20 -20 -20 -20 -20 -20 -20 -20 -20 -20 -20 -20 -20 -20 -20 -20 -20 -20 -20 -20 -20 -20 -20 -20 -20
10 6 11 -20 -20 9 23 17 -14 -20 22 -1 -20 2 8 10 11 9 9 9 14 18 10 10 4 -9 -20 -20 -20 -20 -18 -20 -20 -20 -20 -20 -20 -20 -20 -20 -20 -20 -20 -20 -20 -20 -20 -20 -20 -20 -20 -20 -20 -20
5 11 5 -20 -11 -8 26 20 15 -17 -20 -20 -20 -9 2 -3 -5 -8 -20 -16 -14 -20 -20 -20 -20 -20 -20 -20 -20 -20 -20 -20 -20 -20 -20 -20 -20 -20 -20 -20 -20 -20 -20 -20 -20 -20 -20 -20 -20 -20 -20 -20 -20 -20
4 17 -7 2 -1 13 24 19 -3 -9 -19 -20 -20 -20 -20 -20 -20 -20 -20 -10 -20 -20 -20 -20 -20 -20 -20 -20 -20 -20 -20 -20 -20 -20 -20 -20 -20 -20 -20 -20 -20 -20 -20 -20 -20 -20 -20 -20 -20 -20 -20 -20 -19 -4
17 38 33 15 5 -15 -20 -2 -6 -20 -20 -20 -20 -20 -20 -20 -15 -6 -17 -20 -20 -20 -7 -20 -20 -20 -20 -20 -20 -20 -20 -20 -20 -20 -20 -20 -20 -20 -20 -20 -20 -20 -20 -20 -20 -20 -20 -20 -20 -20 -20 -20 1 5
20 37 28 18 -13 -18 -20 -20 -20 -20 -20 -20 -20 -20 -20 -1 -20 -20 -20 -20 -20 -0 0 -20 -20 -20 -20 -20 -20 -20 -20 -20 -20 -20 -20 -20 -20 -20 -20 -20 -20 -20 -20 -20 -20 -20 -20 -20 -20 -20 2 3 -17 11
29 35 35 32 22 13 -14 -20 -20 -20 -20 -20 -20 -20 -20 -20 -20 -12 -19 -20 -5 -20 -20 -20 -20 -20 -20 -20 -20 -20 -20 -20 -20 -20 -20 -20 -20 -20 -20 -20 -20 -20 -20 -20 -20 -20 -20 -20 -20 -20 -20 -20 -1 -4
34 34 21 19 16 1 -20 -20 -20 -20 -20 -20 -20 -20 -20 -20 -20 -20 -20 -20 -20 -20 -20 -20 -20 -20 -20 -20 -20 -20 -20 -20 -20 -20 -20 -20 -20 -20 -20 -20 -20 -20 -20 -20 -20 -20 -20 -20 -20 -7 -2 -12 7 -20
17 14 -15 -20 -20 -20 -20 -20 -20 -20 -20 -20 -20 -20 -20 -20 -20 -18 -20 -20 -20 -20 -20 -20 -20 -20 -20 -20 -20 -20 -20 -20 -20 -20 -20 -20 -20 -20 -20 -20 -20 -20 -20 -20 -20 -20 -20 2 -14 4 8 8 4 6
2 -11 -20 -20 -20 -20 -20 -20 -20 -20 -20 -20 -20 -20 -20 -20 -20 -20 -20 -20 -20 -20 -20 -20 -20 -20 -20 -20 -20 -20 -20 -20 -20 -20 -20 -20 -20 -20 -20 -20 -20 -20 -20 -6 -3 3 5 8 9 12 -9 8 6 8
-20 -20 -20 -20 -20 -20 -20 -20 -20 -20 -20 -20 -20 -20 -20 -20 -20 -20 -20 -20 -20 -15 15 7 -20 -20 -20 -20 -20 -20 -20 -20 -20 -20 -20 -20 -20 -20 -20 -20 -20 -13 -20 -14 -2 4 4 2 0 4 5 -8 4 -5
-16 -20 -20 -20 -20 -20 -20 -20 -20 -20 -20 -20 -20 -20 -20 -20 -20 -20 -20 -20 -20 -20 -20 -20 -20 -20 -20 -20 -20 -20 -20 -20 -20 -20 -20 -20 -20 -20 -20 -17 -18 2 -12 4 6 7 4 3 6 8 7 1 -13 -20
-20 -20 -20 -20 -20 -20 -20 -20 -20 -20 -20 -20 -20 -20 -20 -20 -20 -20 -20 -20 -20 -20 -20 -20 -20 -20 -20 -20 -8 -20 -20 -20 -20 -20 -20 -20 -20 -5 -6 -15 -11 -19 -11 1 3 3 7 8 8 -1 -3 4 -1 -20
-20 -20 -20 -20 -20 -20 -20 -20 -20 -20 -20 -20 -20 -20 -20 -20 -20 -20 -18 -20 -20 -20 -20 -20 -20 -20 -20 -20 -20 -4 -20 -20 -20 -20 -20 -4 14 10 -8 -1 -2 -14 -20 -20 -20 -16 -7 3 -7 -20 -8 -4 -4 -4
-20 -20 -20 -20 -20 -20 -20 -20 -20 -20 -20 -20 -20 -20 -20 -20 -6 -18 -20 -20 -20 -20 -20 -20 -20 -20 -20 -20 -20 -19 -12 -8 -18 -15 -19 -18 -17 -4 -5 -16 -16 -15 -20 -20 -20 -18 -14 -20 -20 -20 -20 -20 -20 -20
-20 -20 -20 -20 -20 -20 -20 -20 -20 -20 -20 -20 -20 -20 -19 -20 -7 -8 -20 -14 -20 -20 -20 -20 -20 -2 -3 -6 -6 -20 -13 -17 -12 -12 -18 -18 -20 -20 -20 -20 -18 -17 -19 -20 -20 -3 -14 -19 -20 -20 -20 -20 -20 -20
-20 -20 -20 -20 -20 -20 -20 -20 -20 -20 -20 -20 -20 -20 -20 -20 -20 -6 -3 -20 -20 -20 -20 -20 -20 -0 -19 -19 -19 -19 -20 -20 -20 -20 -20 -19 -19 -19 -20 -20 -13 -11 -15 -19 -20 -20 -20 -20 -20 -20 -20 -20 -20 -20
-20 -20 -20 -20 -20 -20 -20 -20 -20 -20 -20 -20 -20 -20 -20 -20 -20 -5 -20 -14 -1 -2 -16 -20 -20 -20 -5 -20 -20 -20 -20 -20 -20 -20 -20 -20 -20 -20 -13 -12 -16 -14 -19 -20 -20 -20 -20 -20 -20 -20 -20 -20 -20 -20

GFSWCAN_prec_radar_009.txt.gz
Reflectivity
24 -3 5 -2 -20 -20 -20 -20 -20 -20 -20 -20 -20 -20 -20 -20 -20 -20 -20 -20 -20 -8 -20 -20 -20 -20 -20 -20 -20 -20 -20 -20 -20 6 -16 -20 -20 -20 -20 -20 -20 -20 -12 -20 0 -2 3 -20 -20 -1 3 -20 -20 -20
30 22 11 5 -20 -20 -20 -20 -20 -20 -20 -20 -20 -20 -20 -20 -20 -20 -20 -20 -20 -20 -20 -20 -20 -20 -20 -20 -20 -20 -20 -20 -20 -13 -7 -20 -5 13 -18 -20 -20 -20 -20 -20 2 -20 -20 -7 23 15 10 -11 -5 0
30 26 14 -20 -20 -20 -20 -20 -20 -20 -20 -20 -20 -20 -20 -20 -20 -20 -20 -20 -20 -15 -20 -20 -20 -20 -20 -20 -20 -20 -20 -20 -20 -20 -20 -20 14 -20 -20 -20 -20 -20 -20 -19 -1 -20 -20 -20 -17 18 -19 -20 -20 -20
31 30 25 10 -11 -20 -20 1 -20 -20 -20 -20 -20 -20 -20 -20 -20 -20 -20 -20 -20 -20 28 -20 -20 -20 -20 -20 -20 -20 -20 -20 -20 -20 6 6 14 -20 -16 -20 -20 -20 -20 -20 3 -20 -20 -20 -20 -20 -20 -20 -18 -8
12 28 26 11 -20 -20 -20 -20 -20 -20 -20 3 6 0 2 -20 -20 -20 -20 -20 -20 -20 11 -20 -20 -20 -20 -20 -20 -20 -20 -20 -20 -6 15 6 -20 -20 4 -20 -20 -20 -20 1 7 -5 -14 1 -3 23 -10 4 -20 -20
2 -18 -19 -19 -10 -19 -13 -20 -20 -8 -20 6 6 -19 -7 -20 -20 -20 -20 -20 -20 -20 -13 12 -20 -20 -20 -20 -20 -20 -20 -20 -20 -2 -4 -20 -19 -20 -20 4 -20 -20 -20 -20 -6 -20 -20 -20 -6 24 -6 -20 -20 -20
-20 -20 -20 -20 -20 -20 -20 -20 -20 -12 -15 -20 -1 -0 2 -20 -1 11 7 -15 -19 -20 10 14 -18 -20 -20 -20 -20 -20 -20 1 -13 -13 -15 -20 -15 -9 15 -17 -20 -20 -20 -20 -20 -20 -18 23 8 -19 -20 -20 -20 -20
-20 -20 -20 -20 -20 -20 -20 -20 -18 7 1 -18 -20 -3 -18 -20 -20 -5 -20 -20 -20 -20 -15 -7 -3 -20 -20 -4 -15 -20 -4 -16 4 10 -14 -20 7 -9 -6 -20 -20 -20 -20 -20 -20 -20 6 29 -5 -20 -20 -20 -20 -20
-20 -20 -20 -20 -20 -20 -20 -20 -20 -6 5 -13 -8 8 0 -4 -5 -7 -20 -20 -20 -18 -15 10 -19 -16 -20 -18 -20 -20 -20 3 -13 12 -9 -12 -19 -3 -20 -20 -20 -20 -20 -20 -20 -20 -20 -20 -20 -20 -20 -20 -20 -20
-20 -20 -20 -20 -20 -20 -20 -20 -20 -20 21 18 25 28 -3 -6 17 -20 -10 -20 -20 -20 -16 -9 -6 -19 -20 -20 11 -20 -19 -20 8 -20 -20 -20 -19 -20 -20 -20 -20 -20 -20 -20 -20 -20 -20 -20 -20 -20 -20 -20 -20 -20
-20 -20 -20 -20 -20 -16 -20 -2 -20 10 30 34 35 33 26 24 9 -11 -17 7 -16 -5 -20 -20 -20 -20 -15 -13 -20 -20 3 5 -12 -4 -2 2 -0 -20 -20 -20 -20 -20 -20 -20 -20 -20 -20 -20 -20 -20 -20 -20 -20 -20
-20 -20 -20 -20 -20 6 -20 13 6 -2 24 31 33 27 29 34 23 33 34 14 -2 2 -20 -20 -15 -20 -20 -20 -20 7 30 30 2 -19 4 -10 -20 -20 -20 -20 -20 -20 -20 -20 -20 -20 -20 -20 -20 -20 -20 -20 -20 -20
-20 -20 -20 -20 -19 7 -14 -15 -4 16 21 28 37 32 33 31 27 23 15 25 2 2 4 14 6 -0 14 15 28 30 14 21 10 -4 -5 -19 -20 -20 -12 -20 -20 -20 -20 -20 -20 -20 -20 -20 -20 -20 -20 -20 -20 -20
-20 -20 -20 -20 -20 3 13 -8 2 -2 23 30 34 30 35 29 37 35 23 -2 -4 -8 -11 -8 27 31 29 23 30 27 12 -12 1 4 -20 -14 -20 -20 -20 -20 -20 -20 -20 -20 -20 -20 -20 -20 -20 -20 -20 -20 -20 -20
-20 -20 -20 -20 -13 16 11 14 15 8 13 24 30 23 26 30 30 33 31 25 24 27 32 32 25 17 25 19 21 5 0 -4 -0 -3 -16 -16 -20 -20 -20 -20 -20 -20 -20 -20 -20 -20 -20 -20 -20 -20 -20 -20 -20 -20
-20 -20 8 -20 -17 10 -3 16 15 -7 13 3 27 24 26 26 28 31 30 32 30 27 21 23 22 16 3 8 1 4 9 -20 -20 -20 -20 -20 -20 -20 -20 -20 -20 -20 -20 -20 -20 -20 -20 -20 -20 -20 -20 -20 -20 -20
-20 7 -20 -20 -20 21 19 20 29 26 11 10 -2 17 21 27 22 33 27 33 29 31 33 27 14 14 13 10 4 8 2 -12 -20 -20 -20 -20 -20 -20 -20 -20 -20 -20 -20 -20 -20 -20 -20 -20 -20 -20 -20 -20 -20 -20
8 6 -20 -20 -20 -9 17 -10 14 6 -11 -20 -4 -5 -3 3 5 9 7 3 4 6 5 8 6 -3 -4 -2 -19 -20 -20 -20 -20 -20 -20 -20 -20 -20 -20 -20 -20 -20 -20 -20 -20 -20 -20 -20 -20 -20 -20 -20 -20 -20
17 15 -20 -13 -20 -12 20 20 -18 -5 -20 -20 -14 -20 -20 -4 -7 -7 -6 -3 -14 -18 -15 -14 -15 -20 -10 -19 -20 -20 -20 -20 -20 -20 -20 -20 -20 -20 -20 -20 -20 -20 -20 -20 -20 -20 -20 -20 -20 -20 -20 -20 -9 -1
5 1 19 20 3 -10 -15 2 8 -6 -20 -20 -16 -15 -20 -11 -16 -5 -1 -4 -18 -20 -6 -5 -13 -20 -20 -20 -20 -20 -20 -20 -20 -20 -20 -20 -20 -20 -20 -20 -20 -20 -20 -20 -20 -20 -20 -20 -20 -20 8 -11 -20 -3
24 8 33 27 13 -20 -20 -20 -13 -19 -20 -20 -20 -20 -20 -20 -20 -20 -18 -20 3 13 3 -20 -20 -20 -20 -20 -20 -20 -20 -20 -20 -20 -20 -20 -20 -20 -20 -20 -20 -20 -20 -20 -20 -20 -20 -20 -19 -20 -20 -14 -8 6
16 22 33 26 7 7 -20 -20 -15 -20 -3 -1 -2 -8 -20 -20 -20 -20 -18 -20 -15 -20 -20 -20 -20 -20 -20 -20 -20 -20 -20 -20 -20 -20 -20 -20 -20 -20 -20 -20 -20 -20 -20 -20 12 -17 -7 -16 -0 -12 -8 -20 2 6
13 27 37 29 12 -3 -0 -20 -6 -20 -3 -9 -11 -3 -4 -6 -17 -20 -20 -20 -20 -20 -20 -20 -20 -20 -20 -20 -20 -20 -20 -20 -20 -20 -20 -20 -20 -20 -20 -20 -20 -0 -1 -20 -20 7 16 8 7 -3 -10 3 7 8
23 22 25 24 20 9 -14 -14 -20 -20 -20 -20 -16 -20 -19 -14 -20 -7 -17 -20 -20 -20 -20 -20 -20 -20 -20 -20 -20 -20 -20 -20 -20 -20 -20 -20 -20 -16 -5 -20 -20 -20 0 5 6 7 9 -16 9 2 6 9 9 -1
26 24 22 17 10 -18 -8 -19 -8 -20 -20 -20 -20 -20 -5 -20 -20 -20 -20 -20 -20 -17 -19 -20 -20 -20 -20 -20 -20 -20 -20 -20 -20 -20 -7 18 16 8 -19 -20 -20 -5 5 -13 -20 -6 2 9 8 8 1 8 1 2
19 8 -6 -11 -20 -20 -9 -18 -20 -16 -20 -20 -14 -15 -15 -2 -20 -20 -20 -14 1 -5 -3 -5 -20 -20 -20 -20 -20 -20 -20 -20 -20 -20 -20 2 5 16 5 -1 9 4 15 14 9 10 7 11 5 -4 7 9 11 9
-5 -8 -20 -20 -20 -20 -20 -20 -20 -20 -20 -20 -20 -13 -20 -20 -20 -20 -20 -20 -20 -12 -20 -17 -20 -20 -20 -20 -20 -20 -20 -16 -14 -10 -20 -20 -20 -20 9 15 8 4 -19 -1 6 10 11 8 6 8 10 9 10 14
-20 -20 -20 -8 -20 -20 -20 -20 -20 -20 -20 -20 -20 -20 -20 -20 -20 -11 -20 -20 -18 -20 -20 -20 -20 -20 -20 -20 -7 -20 -20 -15 -10 -5 -5 -0 26 10 -10 -1 4 -2 -1 4 3 0 4 8 9 12 8 8 12 7
-6 -12 -20 -20 -20 -20 -20 -20 -20 -20 -20 -20 -20 -20 -20 -20 -4 -16 -5 -4 -20 -18 -20 -18 -18 -5 -7 -12 -4 5 -5 -3 -16 -20 -19 -5 -3 -9 -4 -3 -2 -2 -3 -1 -3 6 7 5 0 -6 2 5 4 5
-20 -14 -19 -20 -20 -20 -10 -20 4 -16 -20 -20 -20 -20 -20 -11 -2 -4 -4 -3 -9 -3 -1 -1 -2 -2 -2 -3 -3 2 -1 -1 -1 -1 -2 -2 2 1 1 -1 -14 -13 -12 -2 -3 -3 5 2 6 6 -8 -14 -2 -4
-16 -20 -20 -19 -15 1 -13 -20 -20 -20 -20 -17 5 -18 1 -17 -1 -3 -3 -2 -0 -1 -2 -2 -2 -3 -0 -2 -1 -1 -7 -7 -2 -2 -14 -9 -3 -2 -3 -15 -2 -3 -4 -3 -2 2 -2 1 4 -2 -2 -4 -6 -4
-20 -20 -20 -5 -2 -20 -20 -6 -3 -3 3 -1 -7 -20 -6 -5 -6 -2 1 -0 -0 -2 -2 -0 -1 0 1 4 2 3 -5 2 -0 -1 -2 -20 -5 -20 -20 -11 -4 -4 -18 -19 0 0 1 2 -7 -3 -2 -4 -20 -20
-9 -15 -20 -5 -1 -16 -20 -20 -20 -20 -20 -20 -1 -5 -6 -20 -20 -2 -1 1 1 0 -1 0 -0 -0 4 7 3 1 -8 -0 2 -1 -12 -20 -20 -20 -20 -20 -20 -20 -20 -6 0 0 -4 -14 -12 -13 -20 -20 -20 -20

GFSWCAN_prec_radar_012.txt.gz
Reflectivity
10 -8 -1 -20 -20 -20 -20 -20 -20 -20 -20 -20 -20 -20 -20 -20 -20 -20 -20 -20 -20 -20 -20 -20 -20 -20 -20 -20 -18 -20 -20 -20 -20 -20 -20 -20 -20 -20 -20 -20 -20 -20 -20 -18 -20 -11 -17 -20 -20 -20 -14 -10 -14 -20
28 11 -19 -20 -20 -20 -20 -20 -20 -20 -20 -20 -20 -20 -20 -20 -20 -20 -20 -20 -20 -20 -20 -20 -20 -20 -20 -20 -20 -20 -20 -20 -20 -19 5 -20 -20 6 -20 -20 -20 -20 -20 -20 -20 -20 -20 -20 -20 -20 -20 -20 -17 17
35 25 7 -1 -12 -20 -20 -20 -20 -20 -20 -20 -20 -20 -20 -20 -20 -20 -20 -20 -20 -18 -20 -20 -20 -20 -20 -20 -20 -20 -20 -20 -20 -20 -20 -20 2 -20 -20 -20 -20 -20 -20 -20 -20 -20 -20 -20 1 -0 -20 -20 -20 -20
36 28 27 12 -1 -20 -20 -20 -20 -20 -20 -20 -20 -20 -20 -20 -20 -20 -20 -20 -20 -20 23 -20 -20 -20 -20 -20 -20 -20 -20 -20 -20 -20 -4 10 -14 -20 -20 -20 -20 -18 -20 -20 -20 -20 -20 -19 -20 -20 -20 1 5 -2
35 31 23 2 -3 -20 -9 -20 -20 -20 -6 9 7 8 7 -20 -20 -20 -20 -20 -20 -6 6 -20 -20 -20 -20 -20 -20 -20 -20 -20 -20 -6 9 -13 -20 -18 -13 -20 -20 -12 -17 -20 -20 -20 -13 -11 -20 -20 -20 1 8 -20
11 30 32 21 3 -7 -20 -20 -20 -20 9 5 7 10 4 -7 -20 -20 -20 -20 -20 -20 -13 10 -20 -20 -20 -20 -20 -20 -20 -20 -20 -20 -20 -20 -20 -20 10 -16 -16 -15 -20 -20 -20 -20 -20 -20 -20 -20 -20 -4 -18 -20
-20 -20 23 29 24 15 9 -8 -10 -20 -20 10 -3 10 10 -1 -13 -8 -20 -20 -20 -20 5 10 -19 -20 -20 -20 -20 -20 -20 0 -1 -12 2 -20 -20 12 7 -19 -20 -20 -20 -20 -20 -20 -20 -20 -20 -20 -20 -20 -20 -20
-20 -20 -20 -8 8 -13 -10 -19 -20 -20 -20 -20 -20 -20 -20 -20 -20 -19 -20 -20 -20 -20 -20 -14 -6 -20 -20 -3 -14 -20 -20 -20 -18 6 -9 -11 -5 -14 -6 -20 -20 -20 -20 -20 -20 -20 -20 -20 -20 -20 -20 -20 -20 -20
-20 -20 -20 -20 -20 -20 -20 -20 -20 -13 -20 -12 -11 -11 -17 -18 13 -9 -16 -20 -20 -17 -3 14 -15 -16 -20 -20 -19 -20 -20 -2 -18 10 -12 -16 7 -14 -20 -20 -20 -20 -20 -20 -20 -20 -20 -20 -20 -20 -20 -20 -20 -20
-12 -20 -20 -20 -20 -20 -20 -20 -20 -20 3 13 5 -1 4 -2 -14 -20 -20 -20 -20 -20 -11 2 -11 -20 -20 -20 5 -20 1 7 -20 -20 -20 -20 -20 -20 -20 -20 -20 -20 -20 -20 -20 -20 -20 -20 -20 -20 -20 -20 -20 -20
-18 -13 -20 -20 -20 -20 -20 -18 -9 -18 22 24 25 12 8 17 -12 9 4 -6 -18 1 -18 -20 -12 -20 -20 -20 -4 -20 -20 5 -14 -20 -6 -14 -20 -20 -20 -20 -20 -20 -20 -18 -18 -19 -20 -20 -20 -20 -20 -20 -20 -20
-20 -16 -20 -20 -20 -20 -20 -10 9 0 -10 22 26 25 21 27 27 29 29 9 -20 -14 -20 -20 -20 -20 -18 -16 -20 -20 -17 -20 -20 -14 19 -2 -20 -20 -20 -20 -20 -20 -20 -20 -20 -20 -20 -20 -20 -20 -20 -20 -20 -20
-20 -20 -20 -20 -20 -20 6 -20 5 12 10 24 32 35 33 30 29 27 17 -4 -4 -7 -8 -11 -20 -20 -20 -20 -11 9 10 0 -9 9 -17 -9 1 -20 -20 -20 -20 -20 -20 -20 -20 -20 -20 -20 -20 -20 -20 -20 -20 -20
-20 -20 -20 -20 -20 -11 -19 9 7 3 -10 8 30 24 28 24 29 27 22 20 17 2 -10 -18 -9 -20 -6 -11 28 18 27 16 6 9 -18 17 -6 -4 -20 -20 -20 -20 -20 -20 -20 -20 -20 -20 -20 -20 -20 -20 -20 -20
-20 -20 -20 -20 -20 -15 3 -1 -6 -17 -20 -3 20 18 22 25 28 26 28 22 9 20 30 29 28 24 27 16 29 19 11 13 9 20 27 8 -6 -1 -8 -20 -20 -20 -20 -20 -20 -20 -20 -20 -20 -20 -20 -20 -20 -20
-20 -20 -8 -20 -20 -20 3 -6 -10 -14 -20 -18 -8 7 21 20 27 30 34 32 31 36 33 29 30 27 17 24 13 15 14 14 31 20 5 2 1 -4 -9 -19 -20 -20 -20 -20 -20 -20 -20 -20 -20 -20 -20 -20 -20 -20
-20 3 -16 -20 -20 -16 -20 -20 7 20 -20 -20 -2 -5 -3 21 24 26 33 31 23 23 27 25 15 16 13 11 10 23 15 19 6 -10 -4 3 1 -13 -20 -20 -20 -20 -20 -20 -20 -20 -20 -20 -20 -20 -20 -20 -20 -20
3 3 -14 -20 1 -1 -20 -18 -9 -7 -4 -17 -5 -6 -17 -4 -19 -2 -13 -2 4 14 14 8 6 4 4 9 11 1 -5 2 6 3 -10 -20 -20 -20 -20 -20 -20 -20 -20 -20 -20 -20 -20 -20 -20 -20 -20 -16 2 -19
-14 12 -20 24 -3 -19 -8 -13 -20 -16 -20 -20 -20 -20 -13 -18 -18 -12 -11 -17 -11 -11 -9 -5 -5 -0 -3 -14 -16 -16 -20 -20 -20 -20 -20 -20 -20 -20 -20 -20 -20 -20 -20 -20 -20 -20 -20 -20 -20 -20 -20 -20 -20 4
-20 -20 4 27 11 -20 -9 -7 -20 -20 -4 -19 -16 -20 -20 -14 -18 1 4 -15 -20 -12 -16 -19 -18 4 -19 -20 -20 -20 -20 -20 -20 -20 -20 -20 -20 -20 -20 -20 -20 -20 -20 -20 -20 -20 -20 -20 -20 -2 -20 -14 -8 -8
3 -14 6 27 7 -20 -20 -17 -13 -5 -20 -11 -20 -3 -20 -20 -20 -6 -12 -8 19 -19 -20 -20 1 -20 -20 -20 -20 -20 -20 -20 -20 -20 -20 -20 -20 -20 -20 -20 -20 -20 -20 -20 -20 -20 -20 -20 -20 -20 -19 -17 16 -20
2 20 19 32 36 -19 -20 -20 -13 -20 -4 -8 -20 3 -20 -20 -20 -20 -20 -20 -20 -20 -20 -20 -20 -20 -4 -20 -20 -20 -20 -20 -20 -20 -20 -20 -20 -20 -20 -20 -20 -20 -20 -20 -20 -20 -20 -17 -10 5 5 5 4 -14
22 26 29 31 25 -2 -14 -20 -15 -17 -12 -14 -20 -20 -9 -20 -20 -20 -20 -16 -20 -20 -20 -20 -20 -20 -20 -20 -20 -20 -20 -20 -20 -20 -20 -20 -20 -20 4 -11 -2 7 -20 -20 17 -20 -15 -6 -20 -4 -13 2 -4 -1
30 27 9 12 27 12 -1 -20 -20 -20 -6 -5 -20 1 -15 -9 -20 -10 -20 -20 -20 -20 -20 -20 -20 -20 -20 -20 -20 -20 -20 -20 -20 -20 -2 8 7 -4 5 -15 1 -12 8 17 -10 16 -20 -20 -20 -18 -11 -3 -1 4
29 23 20 15 10 -1 -18 -3 -19 -5 -20 -16 -20 -7 -4 -20 -5 -20 -20 -9 -5 -20 -20 -20 -20 -20 -20 -20 -19 2 -20 -20 -20 -20 -20 -20 -19 -19 -8 -4 -20 -17 -19 -2 9 12 -18 -6 -12 9 10 0 -0 2
23 16 17 8 3 -4 -4 -8 -10 -16 -20 -8 -11 -17 -20 -20 -20 -20 -13 -1 -11 -7 -18 -16 -20 -6 -11 -20 -20 -20 -20 -20 -20 -20 -20 -20 -16 -14 -4 6 9 -0 -18 -1 6 6 -1 6 11 12 10 -0 10 12
6 -3 -10 -20 -20 -13 -5 -12 -15 -20 -20 -20 -9 -16 -20 -20 -20 -13 -20 -20 -7 -20 -20 -20 -20 -20 -20 -20 -20 -19 -20 -20 -20 -12 -15 -12 1 1 -2 3 -1 1 2 5 5 3 1 1 5 8 8 13 13 11
-2 3 -5 -7 -20 -20 -20 -20 -20 -20 -20 -20 -20 -20 -20 -20 -9 -9 -20 -20 -20 -20 -19 -20 -20 -20 -20 -20 -20 4 -20 -19 -20 -20 -20 -0 10 -20 -20 -3 0 -6 1 -0 3 2 3 3 6 8 3 -0 10 9
-19 -19 -20 -20 -20 -20 -20 -20 -20 -20 -20 -20 -2 -2 -20 -20 -15 -20 -17 -1 0 -11 -20 -19 -18 -20 -3 -5 7 -18 -15 -4 -16 -20 -20 -19 -10 -18 -4 3 0 -1 2 -0 -8 -3 1 6 6 7 5 14 4 11
-20 -20 -18 -20 -20 -14 -2 4 -11 -10 -20 -6 -16 -20 -20 -20 -1 -3 -2 -3 -14 -4 1 3 2 -4 0 -2 0 -3 1 -14 -3 -1 -8 -6 3 4 4 3 -1 0 2 2 1 -9 -8 -18 -15 11 -10 -14 -5 8
-20 -20 -20 -15 -10 -7 -4 -20 -20 -20 -20 -20 -20 -11 -14 -18 -0 -3 -5 3 2 -3 -13 -4 -4 2 -2 -1 -1 -2 -4 -9 1 -5 -4 0 2 3 2 -9 -1 4 3 2 -1 -2 6 -1 6 7 -14 -14 -2 -12
-20 -20 -20 -7 3 -3 -20 -20 -20 -20 1 -19 3 -20 -18 -2 -20 -3 -3 -9 -1 -4 -19 -4 -4 -2 -1 1 8 5 -0 3 7 4 4 2 1 2 -7 -1 2 0 -19 -19 -7 5 1 -3 1 -18 -2 -17 -11 -20
-20 -20 -20 -20 -20 -20 -17 -20 -20 -20 -6 -10 -6 -20 -20 -11 -20 -3 -0 1 1 -3 -3 -3 -2 -1 5 -10 -20 4 -18 -6 -16 -13 1 -12 -20 -16 -9 0 3 -20 -20 -20 -2 5 -16 -14 -13 -11 -20 -17 -20 -20